Weather History for Rhinelander, WI

Change the Weather History Date:

Sunday, November 2, 2014

  Actual Average Record
Temperature  
Mean Temperature 39 °F 37 °F  
Max Temperature 48 °F 46 °F 68 °F (1990)
Min Temperature 29 °F 29 °F 3 °F (1951)
Degree Days  
Heating Degree Days 26 28  
Month to date heating degree days 65 55  
Since 1 July heating degree days 1264 1148  
Cooling Degree Days 0 0  
Month to date cooling degree days 0 0  
Year to date cooling degree days 148 261  
Moisture  
Dew Point 21 °F    
Average Humidity 52    
Maximum Humidity 69    
Minimum Humidity 34    
Precipitation  
Precipitation 0.00 in 0.06 in 0.87 in (1972)
Month to date precipitation 0.00 0.13  
Year to date precipitation 36.28 28.25  
Snow  
Snow 0.00 in - 0.30 in (1996)
Month to date snowfall 0.0  
Since 1 July snowfall 2.7  
Since 1 September snowfall 2.7  
Snow Depth 0.00 in    
Sea Level Pressure  
Sea Level Pressure 30.19 in    
Wind  
Wind Speed 9 mph (South)    
Max Wind Speed 17 mph    
Max Gust Speed 23 mph    
Visibility 10 miles    
Events      
T = Trace of Precipitation, MM = Missing Value Source: NWS Daily Summary

Daily Weather History Graph

Daily Weather History Graph

Search for Another Location

Airport:

Trip Planner

Search our weather history database for the weather conditions in past years. The results will help you decide how hot, cold, wet, or windy it might be!

Date:

Astronomy

Nov. 02, 2014 Rise Set
Actual Time 6:39 AM CST 4:43 PM CST
Civil Twilight 6:08 AM CST 5:14 PM CST
Nautical Twilight 5:32 AM CST 5:49 PM CST
Astronomical Twilight 4:58 AM CST 6:23 PM CST
Moon 2:28 PM CST (11/2) 1:26 AM CST (11/2)
Length of Visible Light 11h 06m
Length of Day
10h 04m
Waxing Gibbous, 79% of the Moon is Illuminated
Nov 2
Waxing Gibbous
Nov 6
Full
Nov 14
Last Quarter
Nov 22
New
Nov 29
First Quarter

Hourly Weather History & Observations

Time (CST) Temp. Windchill Dew Point Humidity Pressure Visibility Wind Dir Wind Speed Gust Speed Precip Events Conditions
12:53 AM 30.0 °F 26.5 °F 19.9 °F 66% 30.33 in 10.0 mi South 3.5 mph - N/A   Clear
1:53 AM 30.9 °F 25.2 °F 21.0 °F 67% 30.33 in 10.0 mi SSW 5.8 mph - N/A   Clear
1:53 AM 30.9 °F 22.8 °F 21.0 °F 67% 30.33 in 10.0 mi SSW 9.2 mph - N/A   Clear
2:53 AM 32.0 °F 23.6 °F 21.9 °F 66% 30.31 in 10.0 mi SSW 10.4 mph - N/A   Scattered Clouds
3:53 AM 33.1 °F 26.1 °F 21.9 °F 64% 30.31 in 10.0 mi South 8.1 mph - N/A   Overcast
4:53 AM 33.1 °F 26.1 °F 21.9 °F 64% 30.30 in 10.0 mi South 8.1 mph - N/A   Mostly Cloudy
5:53 AM 32.0 °F 25.6 °F 21.9 °F 66% 30.30 in 10.0 mi South 6.9 mph - N/A   Partly Cloudy
6:53 AM 30.9 °F 24.3 °F 21.9 °F 69% 30.28 in 10.0 mi South 6.9 mph - N/A   Clear
7:53 AM 33.1 °F 25.5 °F 23.0 °F 66% 30.27 in 10.0 mi South 9.2 mph - N/A   Clear
8:53 AM 37.0 °F 28.9 °F 23.0 °F 57% 30.25 in 10.0 mi SSW 12.7 mph - N/A   Clear
9:53 AM 41.0 °F 33.5 °F 19.9 °F 43% 30.23 in 10.0 mi SSW 13.8 mph 23.0 mph N/A   Clear
10:53 AM 43.0 °F 37.7 °F 21.0 °F 42% 30.21 in 10.0 mi South 9.2 mph 21.9 mph N/A   Clear
11:53 AM 43.0 °F 37.7 °F 19.9 °F 40% 30.17 in 10.0 mi South 9.2 mph - N/A   Overcast
12:53 PM 45.0 °F 38.2 °F 19.0 °F 36% 30.14 in 10.0 mi South 15.0 mph 20.7 mph N/A   Scattered Clouds
1:53 PM 46.9 °F - 19.9 °F 34% 30.11 in 10.0 mi South 9.2 mph 20.7 mph N/A   Overcast
2:53 PM 48.0 °F - 21.0 °F 34% 30.09 in 10.0 mi South 13.8 mph 20.7 mph N/A   Scattered Clouds
3:53 PM 46.9 °F - 21.0 °F 36% 30.08 in 10.0 mi South 12.7 mph 23.0 mph N/A   Clear
4:53 PM 45.0 °F 41.8 °F 21.0 °F 39% 30.07 in 10.0 mi South 5.8 mph - N/A   Clear
5:53 PM 44.1 °F 39.0 °F 19.9 °F 38% 30.06 in 10.0 mi SSE 9.2 mph - N/A   Clear
6:53 PM 43.0 °F 38.2 °F 19.9 °F 40% 30.06 in 10.0 mi South 8.1 mph - N/A   Clear
7:53 PM 43.0 °F 38.8 °F 21.0 °F 42% 30.06 in 10.0 mi South 6.9 mph - N/A   Clear
8:53 PM 42.1 °F 36.1 °F 21.0 °F 43% 30.06 in 10.0 mi South 10.4 mph - N/A   Clear
9:53 PM 41.0 °F 35.8 °F 21.0 °F 45% 30.06 in 10.0 mi SSW 8.1 mph - N/A   Clear
10:53 PM 41.0 °F 35.8 °F 19.9 °F 43% 30.04 in 10.0 mi SSW 8.1 mph - N/A   Clear